Location: Byszew
(52.1813°N, 19.2693°E)
Time: 11:22:58
(UTC+00:00)

AIST 2D - Pass Details

Date: 02 July 2022
Orbit: 433 x 444 km, 97.0° (Epoch: 07 August)

Event Time Altitude Azimuth Distance (km) Brightness Sun altitude
Rises 21:37:43 0° 359° (N) 2,429 ? -13.3°
Maximum altitude 21:42:25 16° 297° (WNW) 1,218 ? -13.5°
Drops below altitude 10° 21:44:34 10° 257° (WSW) 1,550 ? -13.6°
Sets 21:47:06 0° 235° (SW) 2,416 ? -13.7°
Enters shadow 21:47:16 -1° 235° (SW) 2,480 ? -13.7°
